Location: Greenwich
(51.4790°N, 0.0090°E)
Time: 22:31:15
(UTC+01:00)

Tiros 1 - All Passes

Search period start: 12 April 2024 00:00
Search period end: 22 April 2024 00:00
Orbit: 625 x 657 km, 48.4° (Epoch: 11 April)

Date Brightness Start Highest point End Pass type
(mag) Time Alt. Az. Time Alt. Az. Time Alt. Az.
12 Apr - 04:42:37 10° SW 04:46:42 32° SSE 04:50:48 10° E visible
12 Apr - 06:23:49 10° WSW 06:28:19 58° S 06:32:50 10° E daylight
12 Apr - 08:05:40 10° W 08:10:07 50° SSW 08:14:34 10° ESE daylight
12 Apr - 09:47:59 10° W 09:51:33 22° SSW 09:55:07 10° SSE daylight
13 Apr - 03:26:07 10° S 03:29:17 19° SE 03:32:28 10° E visible
13 Apr - 05:06:15 10° SW 05:10:38 45° SSE 05:15:01 10° E visible
13 Apr - 06:47:51 10° W 06:52:23 59° S 06:56:55 10° ESE daylight
13 Apr - 08:29:50 10° W 08:34:04 37° SSW 08:38:18 10° SE daylight
13 Apr - 10:13:09 10° WSW 10:15:13 13° SW 10:17:17 10° SSW daylight
14 Apr - 03:49:04 10° SSW 03:53:03 30° SSE 03:57:03 10° E visible
14 Apr - 05:30:08 10° WSW 05:34:38 56° S 05:39:09 10° E visible
14 Apr - 07:11:57 10° W 07:16:26 52° SSW 07:20:53 10° ESE daylight
14 Apr - 08:54:12 10° W 08:57:55 24° SSW 09:01:37 10° SSE daylight
15 Apr - 02:32:43 10° S 02:35:40 17° SE 02:38:36 10° ESE visible
15 Apr - 04:12:35 10° SW 04:16:57 43° SSE 04:21:18 10° E visible
15 Apr - 05:54:09 10° W 05:58:41 60° S 06:03:13 10° ESE daylight
15 Apr - 07:36:07 10° W 07:40:24 39° SSW 07:44:41 10° SE daylight
15 Apr - 09:19:07 10° WSW 09:21:36 14° SW 09:24:05 10° S daylight
16 Apr - 02:55:30 10° SSW 02:59:24 27° SSE 03:03:18 10° E visible
16 Apr - 04:36:27 10° WSW 04:40:56 55° S 04:45:26 10° E visible
16 Apr - 06:18:15 10° W 06:22:44 54° S 06:27:13 10° ESE daylight
16 Apr - 08:00:25 10° W 08:04:16 26° SSW 08:08:05 10° SSE daylight
17 Apr - 01:39:23 10° S 01:42:02 15° SE 01:44:41 10° ESE visible
17 Apr - 03:18:57 10° SW 03:23:16 40° SSE 03:27:35 10° E visible
17 Apr - 05:00:27 10° WSW 05:04:59 60° S 05:09:31 10° E visible
17 Apr - 06:42:23 10° W 06:46:43 42° SSW 06:51:02 10° SE daylight
17 Apr - 08:25:10 10° WSW 08:27:59 16° SW 08:30:47 10° S daylight
18 Apr - 02:01:56 10° SSW 02:05:45 25° SSE 02:09:31 10° E visible
18 Apr - 03:42:45 10° WSW 03:47:14 53° SSE 03:51:43 10° E visible
18 Apr - 05:24:31 10° W 05:29:02 56° S 05:33:32 10° ESE daylight
18 Apr - 07:06:39 10° W 07:10:36 29° SSW 07:14:32 10° SSE daylight
19 Apr - 00:46:06 10° S 00:48:24 14° SE 00:50:42 10° ESE visible
19 Apr - 02:25:18 10° SW 02:29:35 38° SSE 02:33:51 10° E visible
19 Apr - 04:06:44 10° WSW 04:11:17 60° S 04:15:49 10° E visible
19 Apr - 05:48:39 10° W 05:53:02 44° SSW 05:57:23 10° SE daylight
19 Apr - 07:31:16 10° W 07:34:20 18° SW 07:37:24 10° S daylight
20 Apr - 01:08:24 10° SSW 01:12:04 23° SSE 01:15:43 10° E visible
20 Apr - 02:49:03 10° WSW 02:53:32 51° SSE 02:58:00 10° E visible
20 Apr - 04:30:48 10° W 04:35:19 57° S 04:39:50 10° ESE visible
20 Apr - 06:12:52 10° W 06:16:56 31° SSW 06:20:58 10° SE daylight
20 Apr - 23:52:56 10° SSE 23:54:46 12° SE 23:56:35 10° ESE night (unlit)
21 Apr - 01:31:40 10° SW 01:35:53 35° SSE 01:40:06 10° E visible
21 Apr - 03:13:00 10° WSW 03:17:34 59° S 03:22:05 10° E visible
21 Apr - 04:54:54 10° W 04:59:20 47° SSW 05:03:43 10° ESE visible
21 Apr - 06:37:23 10° W 06:40:41 20° SW 06:43:59 10° S daylight
